STARLINK-31956, 59930

Orbit data source: Space-Track

STARLINK-31956, 59930 is a payload satellite owned by SpaceX/Seattle (US) in LEO that was launched on Sat, 01 Jun 2024 UTC via an FALCON 9 launch vehicle from the Air Force Eastern Test Range (AFETR). Payload-class satellites include a variety of spacecraft equipped with specific instruments for various scientific and technological missions. These include communications satellites like Starlink; space stations such as the ISS; scientific satellites like the Hubble; Earth observation satellites from companies like Planet Labs, Umbra, and HawkEye 360; GPS; miniature CubeSats for education and research; and military/defense satellites.

Loading next visibility...
Identifier
59930, 2024-106J
Orbit
LEO
Country
Flag of USUS
Related business
Manufacturer
SpaceX/Seattle
Mission
Operational Commercial Communications
Bus & Motor
STARLINK V2M, Unknown motor
Mass
730 kg wet, ~700 kg dry
Launch date (UTC)
2024-06-01 (1 year ago)
Launch vehicle
FALCON 9
Launch site
Air Force Eastern Test Range (AFETR)
Object type
Payload
Rocket body
Debris
Shape & HBR
Box + 2 Pan, 17.7 m
Radar Cross Section
33.884 m², Large (>1 m²)

Expand to show TLE details & history
Last TLE update: 9 hours ago

TLE from 9 hours ago
0 STARLINK-31956
1 59930U 24106J   25289.12308139  .00001335  00000-0  58038-4 0  9992
2 59930  43.0037  68.9206 0001160 281.8165  78.2557 15.27574656 78417
Epoch: 2025-10-16T02:57Z
TLE epoch observation values (Epoch: 2025-10-16T02:57:14.232Z)
Latitude
0.00003°
Longitude
-0.27599°
Altitude
482.679 km
Speed
7.626 km/s
True Right ascension
04h 35m 40s
True Declination
0° 00' 00"
Sunlit
Object was in full shadow at epoch
Visualization orbit readout
Latitude
Unknown
Longitude
Unknown
Altitude
Unknown
Speed
Unknown
Apparent Right ascension
Unknown
Apparent Declination
Unknown
Sunlit
N/A
Visualization observer readout
Local Sidereal Time
06:48:23
Azimuth
Unknown
Elevation
Unknown
Doppler factor
Unknown
Orbital elements
Apogee altitude
485.806 km
Perigee altitude
484.214 km
Semi-major axis
6,863.147 km
Eccentricity
0.00012
Inclination
43.0037°
RAAN
68.9206°
Arg. of periapsis
281.8165°
True anomaly
78.26871°
Mean anomaly
78.2557°
Eccentric anomaly
78.26221°
Mean motion
3.81732 °/min
Orbital period
94.31 mins
BSTAR
0.000058038
Loading maneuver chart data...
Computing Atmospheric mass density...
Loading historical data...
Loading historical data...
Loading historical data...
Loading historical data...
Loading historical data...
Loading historical data...
Loading historical data...

Documentation

Showing up to 5 results
|